Weather History for Fayetteville, AR

Change the Weather History Date:

Wednesday, February 13, 2013

  Actual Average Record
Temperature  
Mean Temperature 41 °F 39 °F  
Max Temperature 50 °F 51 °F 82 °F (1962)
Min Temperature 32 °F 28 °F 7 °F (1986)
Degree Days  
Heating Degree Days 24 26  
Month to date heating degree days 297 353  
Since 1 July heating degree days 2630 2947  
Moisture  
Dew Point 33 °F    
Average Humidity 73    
Maximum Humidity 100    
Minimum Humidity 46    
Precipitation  
Precipitation 0.02 in 0.11 in 0.94 in (1949)
Month to date precipitation 1.32 1.22  
Year to date precipitation 4.35 4.06  
Sea Level Pressure  
Sea Level Pressure 29.99 in    
Wind  
Wind Speed 7 mph (WSW)    
Max Wind Speed 15 mph    
Max Gust Speed 20 mph    
Visibility 9 miles    
Events      
T = Trace of Precipitation, MM = Missing Value Source: NWS Daily Summary

Daily Weather History Graph

Daily Weather History Graph

Search for Another Location

Airport:

Trip Planner

Search our weather history database for the weather conditions in past years. The results will help you decide how hot, cold, wet, or windy it might be!

Date:

Astronomy

Feb. 13, 2013 Rise Set
Actual Time 7:05 AM CST 5:56 PM CST
Civil Twilight 6:39 AM CST 6:22 PM CST
Nautical Twilight 6:09 AM CST 6:52 PM CST
Astronomical Twilight 5:39 AM CST 7:22 PM CST
Moon 8:44 AM CST (2/13) 9:50 PM CST (2/13)
Length of Visible Light 11h 43m
Length of Day
10h 50m
Waxing Crescent, 14% of the Moon is Illuminated
Feb 13
Waxing Crescent
Feb 17
First Quarter
Feb 25
Full
Mar 4
Last Quarter
Mar 11
New

Hourly Weather History & Observations

Time (CST) Temp. Windchill Dew Point Humidity Pressure Visibility Wind Dir Wind Speed Gust Speed Precip Events Conditions
12:53 AM 34.0 °F - - N/A% 29.97 in 8.0 mi Calm Calm - 0.01 in   Overcast
1:53 AM 34.0 °F - - N/A% 29.96 in 10.0 mi Calm Calm - 0.00 in   Overcast
2:53 AM 33.1 °F 27.7 °F - N/A% 29.96 in 8.0 mi NW 5.8 mph - N/A   Overcast
3:01 AM 33.8 °F 30.8 °F - N/A% 29.94 in 7.0 mi NNW 3.5 mph - N/A   Overcast
3:53 AM 33.1 °F 27.7 °F - N/A% 29.97 in 10.0 mi NNW 5.8 mph - N/A   Overcast
4:53 AM 33.1 °F 25.5 °F 33.1 °F 100% 29.98 in 10.0 mi NW 9.2 mph - N/A   Overcast
5:13 AM 33.8 °F 27.0 °F 33.8 °F 100% 29.97 in 9.0 mi NNW 8.1 mph - N/A   Overcast
5:53 AM 33.1 °F - 33.1 °F 100% 29.99 in 8.0 mi Calm Calm - N/A   Overcast
6:53 AM 33.1 °F 30.0 °F 33.1 °F 100% 30.02 in 5.0 mi West 3.5 mph - N/A   Overcast
7:18 AM 33.8 °F 29.6 °F 33.8 °F 100% 30.01 in 4.0 mi WNW 4.6 mph - N/A   Overcast
7:53 AM 33.1 °F 28.7 °F 33.1 °F 100% 30.04 in 4.0 mi West 4.6 mph - N/A   Overcast
8:53 AM 35.1 °F 30.1 °F 35.1 °F 100% 30.05 in 10.0 mi West 5.8 mph - N/A   Overcast
9:53 AM 37.0 °F 31.6 °F 35.1 °F 93% 30.05 in 10.0 mi SW 6.9 mph - N/A   Scattered Clouds
10:53 AM 42.1 °F 35.7 °F 36.0 °F 79% 30.03 in 10.0 mi SSW 11.5 mph - N/A   Scattered Clouds
11:50 AM 44.6 °F 39.2 °F 35.6 °F 71% 30.01 in 10.0 mi SW 10.4 mph - 0.01 in   Mostly Cloudy
11:53 AM 45.0 °F 39.3 °F 36.0 °F 71% 30.02 in 10.0 mi SW 11.5 mph - 0.01 in   Mostly Cloudy
12:53 PM 46.0 °F 40.6 °F 35.1 °F 66% 30.00 in 10.0 mi WSW 11.5 mph - N/A   Scattered Clouds
1:53 PM 46.9 °F - 34.0 °F 61% 29.98 in 10.0 mi WSW 9.2 mph 19.6 mph N/A   Clear
2:53 PM 50.0 °F - 33.1 °F 52% 29.96 in 10.0 mi WSW 13.8 mph 17.3 mph N/A   Clear
3:53 PM 50.0 °F - 30.9 °F 48% 29.96 in 10.0 mi West 9.2 mph - N/A   Clear
4:53 PM 48.9 °F - 30.0 °F 48% 29.96 in 10.0 mi West 8.1 mph - N/A   Clear
5:53 PM 45.0 °F 41.8 °F 30.0 °F 56% 29.96 in 10.0 mi WSW 5.8 mph - N/A   Clear
6:53 PM 42.1 °F 37.7 °F 30.0 °F 62% 29.97 in 10.0 mi WSW 6.9 mph - N/A   Clear
7:53 PM 36.0 °F 30.3 °F 30.9 °F 82% 29.98 in 10.0 mi South 6.9 mph - N/A   Clear
8:53 PM 34.0 °F 28.8 °F 30.0 °F 85% 29.99 in 10.0 mi SSW 5.8 mph - N/A   Clear
9:53 PM 34.0 °F 28.8 °F 30.0 °F 85% 29.99 in 10.0 mi SSW 5.8 mph - N/A   Clear
10:53 PM 32.0 °F 24.8 °F 30.0 °F 92% 30.00 in 10.0 mi SSW 8.1 mph - N/A   Clear
11:53 PM 32.0 °F 25.6 °F 28.9 °F 88% 29.99 in 10.0 mi SSW 6.9 mph - N/A   Clear